{"data":{"norad_id":68310,"intl_designator":"2026-057S","name":"STARLINK-37148","alt_names":[],"object_type":"PAYLOAD","status":"ACTIVE","operator":null,"country":"US","launch_date":"2026-03-20","launch_site_code":"AFWTR","launch_vehicle":null,"mission":null,"orbit_class":"UNKNOWN","rcs_meters":null,"size_class":null,"mass_kg":null,"dimensions":null,"purposes":["comms"],"wikipedia_slug":null,"has_3d_model":false,"image_url":null,"decayed_at":null,"tle_current":{"epoch":"2026-09-19T07:10:36.602400Z","epoch_age_seconds":152165,"freshness":"FRESH","line1":"1 68310U 26057S   26262.29903475  .00022397  00000+0  69339-3 0  9990","line2":"2 68310  97.2832  27.7769 0002110  91.8368 268.3116 15.33471947 28335","mean_motion":15.33471947,"eccentricity":0.000211,"inclination_deg":97.2832,"raan_deg":27.7769,"arg_perigee_deg":91.8368,"mean_anomaly_deg":268.3116,"bstar":0.00069339,"rev_number":2833,"period_min":93.904554486121,"perigee_km":464.01900073896,"apogee_km":466.9069999391,"semimajor_km":6843.600000339,"source":"CELESTRAK","updated_at":"2026-09-20T09:00:43.879233Z"}}}